• In Hungary
  • List of Countries
  • For 7 days
  • Water Temperature
  • Satellite Maps
  • Weather Map
  • News
  • Weather Widgets
  • user-avatar
    Login

    Hourly Weather Gjirokaster

    Today, 18 August, Friday

    Time Temperature Precipitation Wind Pressure Humidity
    00:00 +17°C° 0 mm 2 mps 653 mmHg 47%
    01:00 +17°C° 0 mm 2 mps 653 mmHg 47%
    02:00 +16°C° 0 mm 2 mps 653 mmHg 47%
    03:00 +16°C° 0 mm 2 mps 653 mmHg 48%
    04:00 +16°C° 0 mm 2 mps 653 mmHg 49%
    05:00 +17°C° 0 mm 2 mps 654 mmHg 46%
    06:00 +19°C° 0 mm 2 mps 654 mmHg 44%
    07:00 +20°C° 0 mm 2 mps 655 mmHg 42%
    08:00 +23°C° 0 mm 1 mps 655 mmHg 38%
    09:00 +25°C° 0 mm 1 mps 656 mmHg 33%
    10:00 +27°C° 0 mm 1 mps 656 mmHg 29%
    11:00 +28°C° 0 mm 2 mps 656 mmHg 28%
    12:00 +28°C° 0 mm 2 mps 656 mmHg 27%
    13:00 +28°C° 0 mm 3 mps 656 mmHg 26%
    14:00 +28°C° 0 mm 3 mps 656 mmHg 28%
    15:00 +27°C° 0 mm 3 mps 655 mmHg 30%
    16:00 +26°C° 0 mm 3 mps 655 mmHg 32%
    17:00 +24°C° 0 mm 3 mps 655 mmHg 37%
    18:00 +23°C° 0 mm 2 mps 654 mmHg 42%
    19:00 +20°C° 0 mm 2 mps 654 mmHg 46%
    20:00 +19°C° 0 mm 2 mps 654 mmHg 48%
    21:00 +18°C° 0 mm 2 mps 654 mmHg 50%
    22:00 +18°C° 0 mm 1 mps 654 mmHg 52%
    23:00 +18°C° 0 mm 1 mps 654 mmHg 52%

    Tomorrow, 19 August, Saturday

    Time Temperature Precipitation Wind Pressure Humidity
    00:00 +18°C° 0 mm 1 mps 654 mmHg 52%
    01:00 +18°C° 0 mm 1 mps 654 mmHg 52%
    02:00 +16°C° 0 mm 1 mps 654 mmHg 52%
    03:00 +16°C° 0 mm 1 mps 653 mmHg 53%
    04:00 +16°C° 0 mm 1 mps 653 mmHg 53%
    05:00 +19°C° 0 mm 1 mps 654 mmHg 49%
    06:00 +20°C° 0 mm 1 mps 654 mmHg 46%
    07:00 +22°C° 0 mm 1 mps 655 mmHg 43%
    08:00 +24°C° 0 mm 1 mps 655 mmHg 38%
    09:00 +26°C° 0 mm 1 mps 656 mmHg 34%
    10:00 +28°C° 0 mm 1 mps 656 mmHg 29%
    11:00 +28°C° 0 mm 2 mps 656 mmHg 28%
    12:00 +29°C° 0 mm 2 mps 656 mmHg 27%
    13:00 +29°C° 0 mm 3 mps 655 mmHg 26%
    14:00 +28°C° 0 mm 3 mps 655 mmHg 28%
    15:00 +27°C° 0 mm 3 mps 655 mmHg 31%
    16:00 +26°C° 0 mm 3 mps 654 mmHg 33%
    17:00 +24°C° 0 mm 2 mps 654 mmHg 37%
    18:00 +23°C° 0 mm 2 mps 654 mmHg 41%
    19:00 +21°C° 0 mm 1 mps 654 mmHg 45%
    20:00 +20°C° 0 mm 1 mps 654 mmHg 47%
    21:00 +19°C° 0 mm 1 mps 654 mmHg 48%
    22:00 +19°C° 0 mm 1 mps 654 mmHg 50%
    23:00 +18°C° 0 mm 1 mps 653 mmHg 51%

    Day after tomorrow, 20 August, Sunday

    Time Temperature Precipitation Wind Pressure Humidity
    00:00 +18°C° 0 mm 1 mps 653 mmHg 51%
    01:00 +16°C° 0 mm 1 mps 653 mmHg 52%
    02:00 +16°C° 0 mm 1 mps 653 mmHg 51%
    03:00 +16°C° 0 mm 1 mps 653 mmHg 51%
    04:00 +16°C° 0 mm 1 mps 652 mmHg 51%
    05:00 +18°C° 0 mm 1 mps 653 mmHg 47%
    06:00 +20°C° 0 mm 1 mps 653 mmHg 43%
    07:00 +22°C° 0 mm 1 mps 653 mmHg 39%
    08:00 +23°C° 0 mm 1 mps 654 mmHg 35%
    09:00 +25°C° 0 mm 2 mps 654 mmHg 31%
    10:00 +27°C° 0 mm 2 mps 655 mmHg 27%
    11:00 +28°C° 0 mm 2 mps 655 mmHg 27%
    12:00 +28°C° 0 mm 3 mps 654 mmHg 26%
    13:00 +28°C° 0 mm 3 mps 654 mmHg 26%
    14:00 +28°C° 0 mm 3 mps 654 mmHg 29%
    15:00 +27°C° 0 mm 3 mps 653 mmHg 32%
    16:00 +26°C° 0 mm 3 mps 653 mmHg 35%
    17:00 +24°C° 0 mm 2 mps 653 mmHg 42%
    18:00 +21°C° 0 mm 2 mps 652 mmHg 49%
    19:00 +20°C° 0 mm 1 mps 652 mmHg 55%
    20:00 +19°C° 0 mm 1 mps 652 mmHg 58%
    21:00 +19°C° 0 mm 1 mps 652 mmHg 60%
    22:00 +17°C° 0 mm 2 mps 652 mmHg 63%
    23:00 +17°C° 0 mm 2 mps 652 mmHg 63%

    21 August, Monday

    Time Temperature Precipitation Wind Pressure Humidity
    00:00 +16°C° 0 mm 2 mps 652 mmHg 64%
    01:00 +16°C° 0 mm 2 mps 652 mmHg 65%
    02:00 +16°C° 0 mm 2 mps 652 mmHg 66%
    03:00 +15°C° 0 mm 2 mps 651 mmHg 67%
    04:00 +15°C° 0 mm 2 mps 651 mmHg 67%
    05:00 +16°C° 0 mm 2 mps 652 mmHg 64%
    06:00 +17°C° 0 mm 2 mps 652 mmHg 61%
    07:00 +19°C° 0 mm 2 mps 653 mmHg 57%
    08:00 +21°C° 0 mm 2 mps 653 mmHg 52%
    09:00 +23°C° 0 mm 2 mps 653 mmHg 46%
    10:00 +25°C° 0 mm 3 mps 654 mmHg 40%
    11:00 +26°C° 0 mm 3 mps 654 mmHg 38%
    12:00 +26°C° 0 mm 4 mps 653 mmHg 37%
    13:00 +27°C° 0 mm 5 mps 653 mmHg 35%
    14:00 +26°C° 0 mm 5 mps 653 mmHg 38%
    15:00 +25°C° 0 mm 5 mps 653 mmHg 40%
    16:00 +23°C° 0 mm 5 mps 653 mmHg 42%
    17:00 +22°C° 0 mm 5 mps 652 mmHg 46%
    18:00 +20°C° 0 mm 5 mps 652 mmHg 50%
    19:00 +17°C° 0 mm 5 mps 652 mmHg 55%
    20:00 +17°C° 0 mm 4 mps 652 mmHg 58%
    21:00 +15°C° 0 mm 4 mps 652 mmHg 62%
    22:00 +14°C° 0 mm 4 mps 652 mmHg 65%
    23:00 +14°C° 0 mm 3 mps 652 mmHg 62%

    22 August, Tuesday

    Time Temperature Precipitation Wind Pressure Humidity
    00:00 +13°C° 0 mm 3 mps 652 mmHg 59%
    01:00 +13°C° 0 mm 3 mps 652 mmHg 56%
    02:00 +13°C° 0 mm 3 mps 652 mmHg 54%
    03:00 +12°C° 0 mm 3 mps 652 mmHg 52%
    04:00 +12°C° 0 mm 3 mps 652 mmHg 50%
    05:00 +13°C° 0 mm 3 mps 653 mmHg 47%
    06:00 +14°C° 0 mm 3 mps 653 mmHg 45%
    07:00 +17°C° 0 mm 3 mps 654 mmHg 43%
    08:00 +19°C° 0 mm 2 mps 654 mmHg 38%
    09:00 +21°C° 0 mm 2 mps 655 mmHg 34%
    10:00 +24°C° 0 mm 2 mps 656 mmHg 29%
    11:00 +25°C° 0 mm 2 mps 656 mmHg 28%
    12:00 +26°C° 0 mm 3 mps 656 mmHg 26%
    13:00 +27°C° 0 mm 3 mps 656 mmHg 24%
    14:00 +27°C° 0 mm 4 mps 655 mmHg 25%
    15:00 +26°C° 0 mm 4 mps 655 mmHg 26%
    16:00 +26°C° 0 mm 4 mps 655 mmHg 26%
    17:00 +22°C° 0 mm 4 mps 655 mmHg 32%
    18:00 +20°C° 0 mm 3 mps 654 mmHg 37%
    19:00 +18°C° 0 mm 3 mps 654 mmHg 42%
    20:00 +17°C° 0 mm 2 mps 654 mmHg 42%
    21:00 +16°C° 0 mm 2 mps 654 mmHg 43%
    22:00 +16°C° 0 mm 2 mps 654 mmHg 43%
    23:00 +15°C° 0 mm 2 mps 654 mmHg 43%

    23 August, Wednesday

    Time Temperature Precipitation Wind Pressure Humidity
    00:00 +15°C° 0 mm 2 mps 654 mmHg 43%
    01:00 +15°C° 0 mm 2 mps 654 mmHg 42%
    02:00 +14°C° 0 mm 2 mps 654 mmHg 43%
    03:00 +14°C° 0 mm 2 mps 654 mmHg 44%
    04:00 +14°C° 0 mm 2 mps 654 mmHg 45%
    05:00 +16°C° 0 mm 2 mps 654 mmHg 44%
    06:00 +17°C° 0 mm 2 mps 655 mmHg 42%
    07:00 +20°C° 0 mm 1 mps 655 mmHg 41%
    08:00 +22°C° 0 mm 1 mps 656 mmHg 38%
    09:00 +24°C° 0 mm 1 mps 656 mmHg 35%
    10:00 +26°C° 0 mm 1 mps 657 mmHg 32%
    11:00 +26°C° 0 mm 2 mps 657 mmHg 31%
    12:00 +27°C° 0 mm 2 mps 657 mmHg 30%
    13:00 +28°C° 0 mm 3 mps 656 mmHg 28%
    14:00 +27°C° 0 mm 3 mps 656 mmHg 30%
    15:00 +27°C° 0 mm 3 mps 656 mmHg 32%
    16:00 +26°C° 0 mm 3 mps 656 mmHg 33%
    17:00 +24°C° 0 mm 2 mps 655 mmHg 40%
    18:00 +21°C° 0 mm 2 mps 655 mmHg 46%
    19:00 +18°C° 0 mm 2 mps 655 mmHg 52%
    20:00 +18°C° 0 mm 2 mps 655 mmHg 52%
    21:00 +18°C° 0 mm 1 mps 655 mmHg 52%
    22:00 +16°C° 0 mm 1 mps 655 mmHg 52%
    23:00 +16°C° 0 mm 1 mps 655 mmHg 51%
    Show more